Beckley, WV

1:21 AM EDT on May 24, 2017 (GMT -0400)
Raleigh County Memorial

Weather History for KBKW - January, 2015

Change the Weather History Date:

Thursday, January 15, 2015

  Actual Average Record
Temperature  
Mean Temperature 27 °F 31 °F  
Max Temperature 32 °F 39 °F 71 °F (1932)
Min Temperature 22 °F 23 °F -9 °F (1994)
Degree Days  
Heating Degree Days 38 34  
Month to date heating degree days 555 510  
Since 1 July heating degree days 2648 2603  
Cooling Degree Days 0 0  
Month to date cooling degree days 0 0  
Year to date cooling degree days 0 0  
Moisture  
Dew Point 22 °F    
Average Humidity 76    
Maximum Humidity 88    
Minimum Humidity 63    
Precipitation  
Precipitation 0.01 in 0.09 in 1.11 in (1995)
Month to date precipitation 0.93 1.37  
Year to date precipitation 0.93 1.37  
Snow  
Snow 0.00 in - - ()
Month to date snowfall 6.2  
Since 1 September snowfall 10.6  
Snow Depth 0.00 in    
Sea Level Pressure  
Sea Level Pressure 30.14 in    
Wind  
Wind Speed 6 mph (WSW)    
Max Wind Speed 16 mph    
Max Gust Speed 22 mph    
Visibility 8 miles    
Events Snow    
T = Trace of Precipitation, MM = Missing Value Source: NWS Daily Summary

Daily Weather History Graph

Daily Weather History Graph

Search for Another Location

Airport or City:

Trip Planner

Search our weather history database for the weather conditions in past years. The results will help you decide how hot, cold, wet, or windy it might be!

Date:

Astronomy

Jan. 15, 2015 Rise Set
Actual Time 7:38 AM EST 5:29 PM EST
Civil Twilight 7:10 AM EST 5:57 PM EST
Nautical Twilight 6:37 AM EST 6:30 PM EST
Astronomical Twilight 6:06 AM EST 7:01 PM EST
Moon 2:32 AM EST (1/15) 1:18 PM EST (1/15)
Length of Visible Light 10h 47m
Length of Day
9h 50m
Waning Crescent, 28% of the Moon is Illuminated
Jan 15
Waning Crescent
Jan 20
New
Jan 26
First Quarter
Feb 3
Full
Feb 11
Last Quarter

Hourly Weather History & Observations

Time (EST) Temp. Windchill Dew Point Humidity Pressure Visibility Wind Dir Wind Speed Gust Speed Precip Events Conditions
12:51 AM 24.1 °F 18.2 °F 19.0 °F 81% 30.25 in 10.0 mi WNW 4.6 mph - N/A   Overcast
1:51 AM 24.1 °F 19.7 °F 19.0 °F 81% 30.24 in 10.0 mi Variable 3.5 mph - N/A   Overcast
2:51 AM 24.1 °F 19.7 °F 18.0 °F 77% 30.24 in 10.0 mi WSW 3.5 mph - N/A   Overcast
3:51 AM 23.0 °F 15.8 °F 18.0 °F 81% 30.24 in 10.0 mi West 5.8 mph - N/A   Overcast
4:51 AM 23.0 °F 17.0 °F 18.0 °F 81% 30.22 in 10.0 mi WSW 4.6 mph - N/A   Overcast
5:51 AM 21.9 °F 15.7 °F 17.1 °F 82% 30.22 in 10.0 mi West 4.6 mph - N/A   Overcast
6:24 AM 21.9 °F - 17.1 °F 82% 30.10 in 10.0 mi Calm Calm - N/A   Scattered Clouds
6:51 AM 21.9 °F 17.2 °F 18.0 °F 85% 30.22 in 10.0 mi SSW 3.5 mph - N/A   Overcast
7:51 AM 23.0 °F 18.4 °F 19.0 °F 85% 30.21 in 10.0 mi ESE 3.5 mph - N/A   Overcast
8:51 AM 24.1 °F 18.2 °F 19.9 °F 84% 30.21 in 10.0 mi South 4.6 mph - N/A   Overcast
9:51 AM 26.1 °F - 21.0 °F 81% 30.21 in 10.0 mi Calm Calm - N/A   Overcast
10:51 AM 28.0 °F 22.8 °F 23.0 °F 81% 30.20 in 10.0 mi SW 4.6 mph - N/A   Overcast
11:51 AM 30.9 °F 25.2 °F 23.0 °F 72% 30.18 in 10.0 mi WSW 5.8 mph - N/A   Overcast
12:51 PM 30.9 °F 25.2 °F 23.0 °F 72% 30.17 in 10.0 mi SW 5.8 mph - N/A   Overcast
1:51 PM 32.0 °F 22.1 °F 21.0 °F 64% 30.17 in 9.0 mi WSW 13.8 mph - N/A   Overcast
2:08 PM 30.0 °F 20.5 °F 21.9 °F 72% 30.07 in 2.5 mi West 11.5 mph 20.7 mph 0.00 in Snow Light Snow
2:18 PM 30.9 °F 22.8 °F 23.0 °F 72% 30.06 in 2.5 mi West 9.2 mph - 0.00 in Snow Light Snow
2:26 PM 30.0 °F 22.4 °F 24.1 °F 79% 30.06 in 4.0 mi West 8.1 mph - 0.00 in Snow Light Snow
2:33 PM 30.9 °F 24.3 °F 25.0 °F 79% 30.06 in 1.8 mi West 6.9 mph - 0.00 in Snow Light Snow
2:51 PM 30.9 °F 23.5 °F 25.0 °F 79% 30.17 in 1.8 mi WSW 8.1 mph - 0.00 in Snow Light Snow
2:58 PM 30.0 °F 22.4 °F 25.0 °F 82% 30.06 in 2.0 mi WSW 8.1 mph - 0.00 in Snow Light Snow
3:04 PM 30.0 °F 22.4 °F 25.0 °F 82% 30.06 in 1.5 mi WSW 8.1 mph - 0.00 in Snow Light Snow
3:14 PM 30.0 °F 21.7 °F 25.0 °F 82% 30.06 in 1.2 mi West 9.2 mph - 0.00 in Snow Light Snow
3:28 PM 30.0 °F 25.2 °F 26.1 °F 85% 30.06 in 2.0 mi WSW 4.6 mph - 0.01 in Snow Light Snow
3:51 PM 30.0 °F 22.4 °F 25.0 °F 82% 30.17 in 3.0 mi SW 8.1 mph - 0.01 in Snow Light Snow
4:35 PM 30.2 °F 21.9 °F 24.8 °F 80% 30.05 in 10.0 mi WSW 9.2 mph - N/A   Overcast
4:44 PM 30.0 °F 21.1 °F 24.1 °F 79% 30.04 in 10.0 mi WSW 10.4 mph - 0.00 in   Overcast
4:51 PM 30.0 °F 21.1 °F 24.1 °F 79% 30.15 in 10.0 mi WSW 10.4 mph - 0.00 in   Overcast
5:28 PM 30.0 °F 23.2 °F 24.1 °F 79% 30.03 in 10.0 mi SW 6.9 mph - N/A   Overcast
5:40 PM 28.9 °F 19.8 °F 24.1 °F 82% 30.03 in 10.0 mi SW 10.4 mph - N/A   Overcast
5:51 PM 28.9 °F 21.9 °F 23.0 °F 78% 30.15 in 10.0 mi SW 6.9 mph - N/A   Overcast
6:15 PM 28.9 °F 20.4 °F 23.0 °F 78% 30.03 in 10.0 mi SW 9.2 mph - N/A   Overcast
6:51 PM 28.9 °F 21.1 °F 23.0 °F 78% 30.15 in 10.0 mi WSW 8.1 mph - N/A   Overcast
7:51 PM 28.9 °F 21.1 °F 24.1 °F 82% 30.15 in 10.0 mi WSW 8.1 mph - N/A   Overcast
8:51 PM 28.9 °F 21.1 °F 24.1 °F 82% 30.15 in 10.0 mi West 8.1 mph - N/A   Overcast
9:51 PM 28.9 °F 22.8 °F 25.0 °F 85% 30.14 in 10.0 mi West 5.8 mph - N/A   Overcast
10:51 PM 28.9 °F 20.4 °F 25.0 °F 85% 30.13 in 10.0 mi West 9.2 mph - N/A   Overcast
11:51 PM 28.9 °F 20.4 °F 25.0 °F 85% 30.12 in 10.0 mi WSW 9.2 mph - N/A   Overcast